[[{"header":{"parameterUnit":"m.s-1","parameterCategory":1,"la1":30.2991,"la2":30.254,"lo1":-89.0895,"lo2":-89.0444,"dy":0.0017,"dx":0.0017,"nx":28,"ny":28,"refTime":"2026-02-09T03:00:00:Z","depth":0,"parameterNumber":2,"parameterNumberName":"U-component_of_WINDS"},"data":[0,0,0,0,0,0,0,0,0,0,0,0,0,0,0,0,0,0,0,0,0,0,0,0,0,0,0,0,0,0,0,0,0,0,0,0,0,0,0,0,0,0,0,0,0,0,0,0,0,0,0,0,0,0,0,0,0,0,-1.4382,-1.4383,0,-1.445,-1.4451,-1.4452,-1.4423,-1.4421,-1.4419,-1.4418,-1.4491,-1.4495,-1.4498,0,0,0,0,0,0,0,0,0,0,0,0,0,-1.4231,-1.4234,-1.4382,-1.4383,-1.4384,-1.445,-1.4451,-1.4452,-1.4423,-1.4421,-1.4419,-1.4417,-1.449,-1.4494,-1.4498,0,0,0,0,0,0,0,0,0,0,0,0,0,-1.4298,-1.4235,-1.4382,-1.4377,-1.4377,-1.445,-1.4451,-1.4453,-1.4423,-1.4421,-1.4418,-1.4416,-1.4489,-1.4494,-1.4499,-1.4582,0,0,-1.4515,-1.4517,0,0,0,0,0,0,0,0,-1.4294,-1.4303,-1.4377,-1.4378,-1.4378,-1.4425,-1.4425,-1.4496,-1.4424,-1.4406,-1.4418,-1.4415,-1.4472,-1.4478,-1.4496,-1.4585,-1.4588,-1.4515,-1.4519,-1.4521,-1.4522,0,0,0,0,0,0,0,-1.4289,-1.43,-1.4409,-1.4378,-1.4379,-1.4373,-1.438,-1.4438,-1.4452,-1.4407,-1.4405,-1.4414,-1.4471,-1.4491,-1.4498,-1.4589,-1.4515,-1.452,-1.4523,-1.4525,-1.4751,-1.4754,0,0,0,0,0,0,-1.4284,-1.4297,-1.4407,-1.4411,-1.4329,-1.4378,-1.4385,-1.4413,-1.4451,-1.4455,-1.4416,-1.4412,-1.4484,-1.4492,-1.45,-1.46,-1.4521,-1.4526,-1.4529,-1.4748,-1.4752,-1.4755,0,0,0,0,0,0,-1.4281,-1.4294,-1.4404,-1.4353,-1.4367,-1.4383,-1.4414,-1.4415,-1.4435,-1.4458,-1.446,-1.4433,-1.4482,-1.4493,-1.4562,-1.4602,-1.4528,-1.4533,-1.4745,-1.4749,-1.4753,-1.48,0,0,0,0,0,0,-1.4277,-1.4293,-1.4324,-1.4354,-1.437,-1.4463,-1.4417,-1.4419,-1.4444,-1.444,-1.4475,-1.4478,-1.4481,-1.4554,-1.4567,-1.4608,-1.4537,-1.4741,-1.4747,-1.4752,-1.4795,-1.4806,-1.4815,0,0,0,0,0,-1.4272,-1.4335,-1.4325,-1.4339,-1.4408,-1.4465,-1.4474,-1.4475,-1.4447,-1.4479,-1.4494,-1.4477,-1.4596,-1.4561,-1.4576,-1.4619,-1.4739,-1.4745,-1.4752,-1.4791,-1.4804,-1.4815,0,0,0,0,0,0,-1.4309,-1.4338,-1.4328,-1.4403,-1.4432,-1.446,-1.45,-1.4488,-1.4527,-1.4521,-1.4522,-1.453,-1.4601,-1.4617,-1.4578,-1.4702,-1.4664,-1.4673,-1.4689,-1.4701,-1.471,-1.4705,-1.4542,0,0,0,0,0,-1.4326,-1.4369,-1.4393,-1.4457,-1.4472,-1.4483,-1.4509,-1.4507,-1.4537,-1.4549,-1.4569,-1.46,-1.4645,-1.4674,-1.4716,-1.4798,-1.4806,-1.4836,-1.4845,-1.4853,-1.4861,-1.4907,-1.492,-1.4776,-1.4776,-1.4776,0,0,-1.4361,-1.4383,-1.441,-1.4465,-1.4487,-1.4533,-1.4494,-1.4544,-1.4578,-1.4557,-1.4623,-1.4639,-1.4674,-1.475,-1.4785,-1.4766,-1.4903,-1.4861,-1.4867,-1.4871,-1.4915,-1.4928,-1.4941,-1.478,-1.4779,-1.4779,0,0,-1.4449,-1.4469,-1.4525,-1.4548,-1.4582,-1.459,-1.4603,-1.4634,-1.4643,-1.4709,-1.4695,-1.4737,-1.4813,-1.4839,-1.4862,-1.4963,-1.4949,-1.4977,-1.5027,-1.5072,-1.5083,-1.5093,-1.5129,-1.5142,-1.4985,-1.4985,-1.4985,0,-1.4489,-1.4556,-1.4555,-1.4606,-1.4632,-1.4615,-1.4672,-1.4695,-1.4741,-1.476,-1.4738,-1.4834,-1.4857,-1.4939,-1.4964,-1.4983,-1.5,-1.4972,-1.5081,-1.5091,-1.5101,-1.5135,-1.5149,-1.4988,-1.4988,-1.4987,-1.4987,0,-1.4604,-1.4651,-1.4692,-1.4736,-1.4766,-1.4821,-1.4829,-1.4861,-1.4857,-1.4868,-1.4936,-1.4963,-1.501,-1.503,-1.5027,-1.5113,-1.51,-1.508,-1.5041,-1.5118,-1.515,-1.5163,-1.4992,-1.4991,-1.499,-1.499,0,0,-1.4715,-1.4759,-1.4774,-1.4795,-1.4832,-1.4869,-1.4924,-1.4969,-1.4996,-1.503,-1.5076,-1.5142,-1.5124,-1.5151,-1.5151,-1.5191,-1.5269,-1.5166,-1.5167,-1.5184,-1.5366,-1.538,-1.5395,-1.5261,-1.5264,-1.5266,-1.5363,0,-1.4805,-1.4898,-1.49,-1.4987,-1.5031,-1.5017,-1.5065,-1.5094,-1.5106,-1.5147,-1.5161,-1.5208,-1.518,-1.5196,-1.5235,-1.5251,-1.5305,-1.5244,-1.5305,-1.5307,-1.5295,-1.5412,-1.5427,-1.5517,-1.5375,-1.5377,-1.5379,0,-1.4922,-1.4958,-1.5049,-1.5081,-1.51,-1.5142,-1.5185,-1.5224,-1.5258,-1.5264,-1.5295,-1.529,-1.5347,-1.5307,-1.5387,-1.5346,-1.5372,-1.5384,-1.5387,-1.5392,-1.5347,-1.5419,-1.5546,-1.5559,-1.5399,-1.5397,-1.5396,0,-1.4994,-1.5066,-1.5129,-1.5148,-1.5187,-1.5217,-1.5235,-1.5266,-1.5294,-1.5333,-1.5351,-1.5396,-1.5421,-1.5457,-1.5465,-1.5435,-1.5546,-1.5506,-1.5553,-1.5553,-1.5576,-1.5574,-1.5707,-1.5594,-1.5593,-1.5593,-1.5593,0,-1.5093,-1.515,-1.5162,-1.5201,-1.5265,-1.5268,-1.5331,-1.5347,-1.5375,-1.5418,-1.541,-1.5451,-1.5459,-1.5503,-1.551,-1.5576,-1.5587,-1.5595,-1.5596,-1.5595,-1.5594,-1.5611,-1.5604,-1.5597,-1.5596,-1.5595,-1.5595,0,-1.5183,-1.5194,-1.5263,-1.5294,-1.5304,-1.5349,-1.5377,-1.5415,-1.5427,-1.5482,-1.5496,-1.5515,-1.5566,-1.5578,-1.5639,-1.5644,-1.5722,-1.5717,-1.571,-1.5709,-1.5755,-1.5751,-1.5903,-1.5924,-1.5798,-1.5799,-1.58,0,-1.5246,-1.5289,-1.5325,-1.5353,-1.5372,-1.5417,-1.5446,-1.5452,-1.5482,-1.5524,-1.5558,-1.5608,-1.5648,-1.5731,-1.5751,-1.5798,-1.5795,-1.5845,-1.5801,-1.58,-1.5795,-1.5792,-1.5797,-1.5853,-1.5854,-1.5855,-1.5856,0,-1.5356,-1.5359,-1.54,-1.5443,-1.5477,-1.5512,-1.5545,-1.5569,-1.558,-1.5615,-1.5666,-1.5697,-1.576,-1.581,-1.5857,-1.5878,-1.5869,-1.587,-1.5883,-1.5882,-1.5876,-1.588,-1.5732,-1.5866,-1.5865,-1.5864,-1.5864,-1.5863,-1.5434,-1.5471,-1.5503,-1.5549,-1.5575,-1.5606,-1.5644,-1.5661,-1.5704,-1.5754,-1.5756,-1.5812,-1.5847,-1.591,-1.5933,-1.5979,-1.5963,-1.5983,-1.5987,-1.5992,-1.5996,-1.587,-1.5988,-1.5987,-1.5987,-1.5987,-1.5987,0,-1.5543,-1.5563,-1.5605,-1.5651,-1.5688,-1.5677,-1.5713,-1.5745,-1.5795,-1.5827,-1.5867,-1.5927,-1.5976,-1.6001,-1.605,-1.6082,-1.608,-1.6095,-1.6092,-1.6097,-1.6007,-1.599,-1.6096,-1.6096,-1.6096,-1.6096,-1.6096,-1.6096,-1.5604,-1.5667,-1.5674,-1.5751,-1.5771,-1.5825,-1.5847,-1.5877,-1.5903,-1.597,-1.6011,-1.6026,-1.6057,-1.6108,-1.6153,-1.616,-1.6178,-1.6195,-1.62,-1.6114,-1.6103,-1.6093,-1.6077,-1.6199,-1.62,-1.6286,-1.6287,-1.6287]},{"header":{"parameterUnit":"m.s-1","parameterCategory":1,"la1":30.2991,"la2":30.254,"lo1":-89.0895,"lo2":-89.0444,"dy":0.0017,"dx":0.0017,"nx":28,"ny":28,"refTime":"2026-02-09T03:00:00:Z","depth":0,"parameterNumber":3,"parameterNumberName":"V-component_of_WINDS"},"data":[0,0,0,0,0,0,0,0,0,0,0,0,0,0,0,0,0,0,0,0,0,0,0,0,0,0,0,0,0,0,0,0,0,0,0,0,0,0,0,0,0,0,0,0,0,0,0,0,0,0,0,0,0,0,0,0,0,0,1.0721,1.0721,0,1.0759,1.0759,1.076,1.0802,1.0803,1.0804,1.0804,1.0843,1.0843,1.0844,0,0,0,0,0,0,0,0,0,0,0,0,0,1.0686,1.0687,1.0721,1.0721,1.0722,1.0759,1.0759,1.076,1.0802,1.0803,1.0804,1.0805,1.0843,1.0843,1.0844,0,0,0,0,0,0,0,0,0,0,0,0,0,1.0711,1.0687,1.0721,1.0747,1.075,1.0759,1.0759,1.076,1.0802,1.0803,1.0804,1.0805,1.0842,1.0843,1.0844,1.0829,0,0,1.0846,1.0846,0,0,0,0,0,0,0,0,1.0709,1.0712,1.0743,1.0746,1.0749,1.0777,1.0761,1.0783,1.0802,1.0782,1.0804,1.0805,1.082,1.0823,1.0828,1.0831,1.0832,1.0846,1.0846,1.0846,1.0847,0,0,0,0,0,0,0,1.0707,1.071,1.0736,1.0743,1.0747,1.0758,1.0763,1.0766,1.0795,1.0784,1.0787,1.0791,1.0822,1.0827,1.0829,1.0833,1.0846,1.0846,1.0847,1.0847,1.0829,1.0828,0,0,0,0,0,0,1.0702,1.0709,1.0735,1.0737,1.0731,1.0758,1.0763,1.0767,1.0796,1.0801,1.079,1.0793,1.0825,1.0828,1.083,1.0817,1.0846,1.0847,1.0847,1.083,1.0829,1.0828,0,0,0,0,0,0,1.0701,1.0704,1.0733,1.0724,1.0728,1.0758,1.0762,1.0767,1.0772,1.08,1.0806,1.079,1.0826,1.0829,1.083,1.0819,1.0847,1.0848,1.0831,1.0829,1.0828,1.0788,0,0,0,0,0,0,1.07,1.0703,1.0697,1.0723,1.0729,1.0731,1.0761,1.0767,1.0773,1.0777,1.0801,1.0806,1.0827,1.0828,1.083,1.082,1.0848,1.0832,1.083,1.0829,1.079,1.0785,1.0781,0,0,0,0,0,1.0698,1.0684,1.0696,1.0699,1.0722,1.073,1.0734,1.0758,1.0772,1.0767,1.0786,1.0806,1.082,1.0828,1.0831,1.082,1.0833,1.0831,1.0829,1.0792,1.0786,1.0781,0,0,0,0,0,0,1.0654,1.0687,1.0702,1.0695,1.071,1.0738,1.0732,1.075,1.0761,1.0764,1.0794,1.0799,1.0796,1.0808,1.0817,1.0809,1.0829,1.0828,1.0801,1.0795,1.0791,1.0788,1.0849,0,0,0,0,0,1.0644,1.0648,1.0677,1.0668,1.0675,1.0702,1.0706,1.0724,1.074,1.0746,1.0765,1.078,1.0788,1.0792,1.0801,1.0793,1.0799,1.0787,1.0782,1.0779,1.0777,1.0775,1.0771,1.0821,1.0821,1.0821,0,0,1.0622,1.0641,1.0641,1.066,1.0673,1.0677,1.0707,1.0709,1.0713,1.0747,1.0749,1.0763,1.0781,1.0778,1.0777,1.0788,1.0765,1.0776,1.0773,1.0773,1.0773,1.0768,1.0764,1.082,1.082,1.082,0,0,1.0585,1.0599,1.0595,1.0608,1.0628,1.0647,1.0646,1.0671,1.0682,1.0685,1.0711,1.0716,1.0729,1.0742,1.075,1.0721,1.074,1.0723,1.0699,1.0697,1.0693,1.069,1.068,1.0677,1.0721,1.0721,1.0721,0,1.0556,1.0563,1.059,1.0591,1.06,1.0632,1.0628,1.064,1.0661,1.0667,1.0679,1.0697,1.0712,1.0713,1.0706,1.0711,1.0712,1.072,1.0691,1.0688,1.0685,1.0677,1.0673,1.0719,1.0719,1.0719,1.0719,0,1.0526,1.0531,1.0525,1.0546,1.0554,1.0552,1.058,1.0585,1.0603,1.062,1.0624,1.0643,1.0657,1.0659,1.0675,1.0663,1.0669,1.0686,1.0707,1.0678,1.0671,1.0668,1.0716,1.0716,1.0717,1.0718,0,0,1.0461,1.0499,1.0497,1.0508,1.0534,1.0538,1.0539,1.0554,1.0558,1.0572,1.0575,1.0586,1.0603,1.0612,1.0631,1.0629,1.0607,1.0647,1.0648,1.0639,1.0596,1.0584,1.0579,1.0621,1.062,1.062,1.0595,0,1.0429,1.0433,1.0459,1.0455,1.0461,1.0493,1.0495,1.0511,1.0528,1.0536,1.0555,1.0563,1.0584,1.059,1.059,1.061,1.0599,1.0612,1.0624,1.0624,1.0618,1.0575,1.0561,1.0537,1.0592,1.0592,1.0591,0,1.0392,1.0405,1.0403,1.0431,1.0434,1.0435,1.0452,1.0458,1.0479,1.0491,1.0503,1.0525,1.053,1.055,1.0557,1.0565,1.0572,1.0583,1.0582,1.0584,1.0606,1.0577,1.053,1.0526,1.0587,1.0587,1.0587,0,1.0345,1.0363,1.0365,1.0373,1.0405,1.0406,1.0419,1.044,1.0448,1.0463,1.0469,1.0484,1.0492,1.0503,1.0529,1.0541,1.0534,1.0556,1.0546,1.0545,1.0542,1.0542,1.0496,1.0546,1.0546,1.0546,1.0546,0,1.0307,1.0304,1.0345,1.0345,1.0344,1.0375,1.0373,1.0389,1.0409,1.0414,1.0443,1.0447,1.0481,1.049,1.051,1.0514,1.0517,1.0528,1.0534,1.0526,1.0525,1.053,1.0533,1.0545,1.0545,1.0545,1.0546,0,1.0255,1.0281,1.0285,1.0317,1.0325,1.0322,1.035,1.0352,1.0372,1.0379,1.0382,1.0413,1.0425,1.0453,1.0472,1.0486,1.0484,1.0494,1.0478,1.0481,1.047,1.0471,1.0426,1.0422,1.0474,1.0473,1.0473,0,1.0228,1.0228,1.0259,1.0265,1.0278,1.0287,1.0296,1.0326,1.0335,1.0359,1.0359,1.0374,1.0387,1.0405,1.043,1.0445,1.0455,1.0439,1.0458,1.0451,1.0456,1.0456,1.0457,1.0435,1.0434,1.0433,1.0433,0,1.018,1.0193,1.0205,1.0222,1.0232,1.0246,1.0262,1.0266,1.0301,1.0308,1.0322,1.0332,1.0353,1.0367,1.0387,1.0402,1.0423,1.0427,1.0426,1.0417,1.0408,1.0414,1.0467,1.0428,1.0428,1.0428,1.0429,1.0429,1.014,1.0142,1.0165,1.0177,1.0193,1.0208,1.0213,1.0234,1.0246,1.0265,1.0283,1.0295,1.0317,1.0346,1.036,1.037,1.0381,1.0378,1.0378,1.0377,1.0374,1.0407,1.0374,1.0374,1.0374,1.0374,1.0374,0,1.0093,1.011,1.0122,1.0144,1.0154,1.0175,1.0195,1.0202,1.0212,1.0232,1.0245,1.0261,1.0276,1.0303,1.032,1.0323,1.0334,1.0327,1.0327,1.033,1.0363,1.0363,1.0318,1.0318,1.0318,1.0318,1.0318,1.0318,1.007,1.0074,1.0091,1.0104,1.0122,1.0134,1.0143,1.0158,1.0174,1.0191,1.0204,1.0221,1.0244,1.0264,1.0279,1.0287,1.0292,1.0282,1.0293,1.0323,1.0328,1.0333,1.0333,1.0283,1.0283,1.026,1.026,1.0259]}]]